Henderson, KY

3:09 PM CST on November 15, 2019 (GMT -0600)
Henderson City-County

Weather History for KEHR - October, 2019

Change the Weather History Date:

Monday, October 21, 2019

  Actual Average Record
Temperature  
Mean Temperature 64 °F -  
Max Temperature 69 °F 69 °F 88 °F (1953)
Min Temperature 57 °F 44 °F 24 °F (1952)
Degree Days  
Heating Degree Days 1    
Growing Degree Days 14 (Base 50)    
Moisture  
Dew Point 59 °F    
Average Humidity 87    
Maximum Humidity 100    
Minimum Humidity 73    
Precipitation  
Precipitation 1.46 in - - ()
Sea Level Pressure  
Sea Level Pressure 29.71 in    
Wind  
Wind Speed 12 mph (South)    
Max Wind Speed 22 mph    
Max Gust Speed 36 mph    
Visibility 8 miles    
Events Rain , Thunderstorm    
Averages and records for this station are not official NWS values.
T = Trace of Precipitation, MM = Missing Value Source: NWS Daily Summary

Daily Weather History Graph

Daily Weather History Graph

Search for Another Location

Airport or City:

Astronomy

Oct. 21, 2019 Rise Set
Actual Time 7:04 AM CDT 6:05 PM CDT
Civil Twilight 6:38 AM CDT 6:32 PM CDT
Nautical Twilight 6:07 AM CDT 7:02 PM CDT
Astronomical Twilight 5:37 AM CDT 7:33 PM CDT
Moon No Moon Rise 2:18 PM CDT (10/21)
Length of Visible Light 11h 53m
Length of Day
11h 00m
Waning Gibbous, 48% of the Moon is Illuminated
Oct 21
Waning Gibbous
Oct 27
New
Nov 4
First Quarter
Nov 12
Full
Nov 19
Last Quarter

Hourly Weather History & Observations

Time (CDT) Temp. Dew Point Humidity Pressure Visibility Wind Dir Wind Speed Gust Speed Precip Events Conditions
12:56 AM 62.1 °F 54.0 °F 75% 29.81 in 10.0 mi SE 11.5 mph - N/A   Clear
1:56 AM 61.0 °F 54.0 °F 78% 29.80 in 10.0 mi SE 10.4 mph - N/A   Scattered Clouds
2:56 AM 61.0 °F 55.0 °F 81% 29.78 in 10.0 mi SE 5.8 mph - N/A   Scattered Clouds
3:56 AM 62.1 °F 55.0 °F 78% 29.74 in 10.0 mi SE 10.4 mph - N/A   Clear
4:56 AM 62.1 °F 55.9 °F 80% 29.69 in 10.0 mi SE 10.4 mph - N/A   Mostly Cloudy
5:05 AM 62.6 °F 55.4 °F 77% 29.71 in 10.0 mi SSE 18.4 mph 23.0 mph 0.00 in Rain , Thunderstorm Light Thunderstorms and Rain
5:41 AM 60.8 °F 59.0 °F 94% 29.67 in 10.0 mi SE 9.2 mph - 0.10 in Thunderstorm Overcast
5:49 AM 60.8 °F 59.0 °F 94% 29.69 in 10.0 mi SE 9.2 mph - 0.10 in   Mostly Cloudy
5:56 AM 61.0 °F 59.0 °F 93% 29.67 in 10.0 mi SE 10.4 mph - 0.10 in   Mostly Cloudy
6:19 AM 62.6 °F 57.2 °F 82% 29.67 in 10.0 mi SSE 13.8 mph - N/A Thunderstorm Scattered Clouds
6:44 AM 62.6 °F 59.0 °F 88% 29.68 in 10.0 mi WNW 10.4 mph - 0.04 in Rain , Thunderstorm Light Thunderstorms and Rain
6:53 AM 62.6 °F 60.8 °F 94% 29.69 in 10.0 mi Variable 6.9 mph - 0.07 in Rain , Thunderstorm Light Thunderstorms and Rain
6:56 AM 62.1 °F 60.1 °F 93% 29.68 in 10.0 mi WSW 8.1 mph - 0.08 in Rain , Thunderstorm Thunderstorms and Rain
7:09 AM 62.6 °F 60.8 °F 94% 29.69 in 10.0 mi SSE 10.4 mph - 0.05 in Rain , Thunderstorm Heavy Thunderstorms and Rain
7:27 AM 62.6 °F 60.8 °F 94% 29.72 in 2.5 mi SSW 13.8 mph - 0.27 in Rain , Thunderstorm Heavy Thunderstorms and Rain
7:41 AM 62.6 °F 60.8 °F 94% 29.71 in 7.0 mi SSW 13.8 mph - 0.42 in Rain , Thunderstorm Light Rain
7:56 AM 62.1 °F 60.1 °F 93% 29.71 in 9.0 mi South 11.5 mph - 0.47 in Rain , Thunderstorm Light Rain
7:58 AM 62.6 °F 60.8 °F 94% 29.71 in 9.0 mi South 11.5 mph - 0.00 in Rain Light Rain
8:25 AM 62.6 °F 60.8 °F 94% 29.70 in 5.0 mi South 8.1 mph - 0.13 in Rain , Thunderstorm Heavy Thunderstorms and Rain
8:29 AM 62.6 °F 60.8 °F 94% 29.71 in 5.0 mi South 8.1 mph - 0.17 in Rain , Thunderstorm Thunderstorms and Rain
8:37 AM 62.6 °F 60.8 °F 94% 29.73 in 6.0 mi South 11.5 mph - 0.23 in Rain , Thunderstorm Rain
8:56 AM 61.0 °F 60.1 °F 97% 29.69 in 10.0 mi SE 4.6 mph - 0.30 in Rain , Thunderstorm Light Rain
9:03 AM 60.8 °F 60.8 °F 100% 29.70 in 4.0 mi SE 5.8 mph - 0.05 in Rain Heavy Rain
9:07 AM 60.8 °F 60.8 °F 100% 29.71 in 2.5 mi SSE 5.8 mph - 0.09 in Rain Heavy Rain
9:11 AM 60.8 °F 60.8 °F 100% 29.71 in 3.0 mi South 5.8 mph - 0.11 in Rain Rain
9:41 AM 60.8 °F 60.8 °F 100% 29.74 in 2.5 mi West 15.0 mph - 0.24 in Rain Heavy Rain
9:44 AM 60.8 °F 60.8 °F 100% 29.73 in 1.5 mi West 10.4 mph - 0.31 in Rain Heavy Rain
9:53 AM 60.8 °F 60.8 °F 100% 29.71 in 4.0 mi Calm Calm - 0.47 in Rain Light Rain
9:56 AM 61.0 °F 61.0 °F 100% 29.71 in 7.0 mi North - - 0.50 in Rain Light Rain
10:56 AM 64.9 °F 63.0 °F 93% 29.66 in 10.0 mi South 8.1 mph - 0.01 in   Scattered Clouds
11:56 AM 66.9 °F 63.0 °F 87% 29.65 in 10.0 mi South 17.3 mph 23.0 mph N/A   Partly Cloudy
12:56 PM 69.1 °F 61.0 °F 75% 29.65 in 10.0 mi SSW 21.9 mph 34.5 mph 0.00 in   Partly Cloudy
1:56 PM 68.0 °F 59.0 °F 73% 29.65 in 10.0 mi SSW 21.9 mph 35.7 mph 0.00 in Rain Light Rain
2:08 PM 66.2 °F 60.8 °F 83% 29.65 in 10.0 mi WSW 11.5 mph - 0.00 in   Clear
2:56 PM 66.0 °F 59.0 °F 78% 29.66 in 10.0 mi SSW 18.4 mph 26.5 mph 0.00 in   Clear
3:56 PM 66.9 °F 59.0 °F 76% 29.68 in 10.0 mi SSW 21.9 mph 27.6 mph N/A   Mostly Cloudy
4:04 PM 66.2 °F 59.0 °F 78% 29.68 in 10.0 mi SSW 16.1 mph - N/A   Mostly Cloudy
4:11 PM 66.2 °F 59.0 °F 78% 29.69 in 10.0 mi SSW 19.6 mph 28.8 mph N/A   Overcast
4:48 PM 66.2 °F 59.0 °F 78% 29.69 in 10.0 mi SSW 16.1 mph 24.2 mph N/A   Mostly Cloudy
4:56 PM 66.0 °F 59.0 °F 78% 29.68 in 10.0 mi SSW 18.4 mph 24.2 mph N/A   Mostly Cloudy
5:26 PM 66.2 °F 59.0 °F 78% 29.69 in 10.0 mi SSW 20.7 mph 25.3 mph N/A   Overcast
5:42 PM 64.4 °F 57.2 °F 77% 29.70 in 10.0 mi SSW 17.3 mph - N/A   Scattered Clouds
5:56 PM 64.9 °F 57.9 °F 78% 29.71 in 10.0 mi SSW 15.0 mph - N/A   Scattered Clouds
6:56 PM 64.0 °F 57.9 °F 80% 29.73 in 10.0 mi SSW 15.0 mph - N/A   Scattered Clouds
7:56 PM 62.1 °F 57.0 °F 84% 29.74 in 10.0 mi SSW 15.0 mph - N/A   Clear
8:56 PM 61.0 °F 57.0 °F 87% 29.76 in 10.0 mi SSW 11.5 mph - N/A   Partly Cloudy
9:56 PM 60.1 °F 57.0 °F 90% 29.80 in 10.0 mi SW 11.5 mph - N/A   Clear
10:56 PM 59.0 °F 55.9 °F 90% 29.82 in 10.0 mi SW 11.5 mph - N/A   Clear
11:56 PM 57.9 °F 53.1 °F 84% 29.83 in 10.0 mi WSW 6.9 mph - N/A   Partly Cloudy